Location: Chemnitz
(49.5500°N, 11.5830°E)
Time: 14:25:32
(UTC+02:00)

ISS - Pass Details

Date: 05 January 2018
Orbit: 402 x 408 km, 51.6° (Epoch: 16 July)

Event Time Altitude Azimuth Distance (km) Brightness Sun altitude
Exits shadow 04:46:14 11° 73° (ENE) 1,470 -0.2 -31.9°
Drops below altitude 10° 04:46:18 10° 73° (ENE) 1,498 -0.2 -31.9°
Enters shadow 05:43:29 -67° 259° (W) 12,150 3.6 -22.6°
Maximum altitude 06:19:44 58° 358° (N) 493 -3.6 -16.9°
